EA1M Weather Reports


Display with metric or nautical units.
time (UTC)temp
F
wind
direction
speed
MPH
gust
MPH
rain 1hr
in
rain 24hr
in
rain mn
in
humidity
%
barometer
mb
20260506222029 56 10 1.0 3.0 0.00 0.15 0.00 84 1014.9
20260506221113 56 13 2.0 4.0 0.00 0.15 0.00 84 1014.9
20260506220117 56 22 2.0 4.0 0.00 0.15 0.00 84 1015.1
20260506215036 55 25 1.0 3.0 0.00 0.15 0.15 84 1015.0
20260506214121 56 40 0.0 2.0 0.00 0.15 0.15 84 1015.1
20260506213022 56 40 0.0 1.0 0.00 0.15 0.15 83 1015.1
20260506212045 56 17 1.0 3.0 0.00 0.15 0.15 83 1015.1
20260506211129 56 25 1.0 3.0 0.00 0.15 0.15 83 1015.1
20260506210029 56 41 0.0 4.0 0.00 0.15 0.15 83 1015.1
20260506205053 56 41 2.0 6.0 0.00 0.15 0.15 82 1015.1
20260506204117 56 11 2.0 6.0 0.00 0.15 0.15 82 1015.1
20260506203037 56 4 3.0 7.0 0.00 0.15 0.15 81 1014.9
20260506202101 56 20 3.0 7.0 0.00 0.15 0.15 80 1015.0
20260506201021 56 18 2.0 6.0 0.00 0.15 0.15 79 1015.0
20260506200045 56 6 3.0 8.0 0.00 0.15 0.15 78 1015.0
20260506195109 57 15 2.0 7.0 0.00 0.15 0.15 77 1014.9
20260506194029 57 355 5.0 9.0 0.00 0.15 0.15 78 1014.8
20260506193053 57 347 4.0 8.0 0.00 0.15 0.15 79 1015.0
20260506192117 57 12 4.0 8.0 0.00 0.15 0.15 79 1015.0
20260506191058 57 9 4.0 8.0 0.00 0.15 0.15 79 1014.8
20260506190101 57 358 5.0 10.0 0.00 0.15 0.15 79 1014.8
20260506185021 58 7 6.0 9.0 0.00 0.15 0.15 78 1014.9
20260506184044 58 342 4.0 9.0 0.00 0.15 0.15 79 1014.9
20260506183108 58 350 5.0 9.0 0.00 0.15 0.15 77 1014.9
20260506182029 58 336 6.0 10.0 0.00 0.15 0.15 76 1015.0
20260506181053 59 338 4.0 9.0 0.00 0.15 0.15 75 1015.0
20260506180117 59 12 4.0 8.0 0.00 0.15 0.15 76 1014.9
20260506175038 59 346 5.0 9.0 0.00 0.15 0.15 75 1015.1
20260506174100 59 18 5.0 11.0 0.00 0.15 0.15 73 1015.3
20260506173022 59 3 6.0 11.0 0.00 0.15 0.15 74 1015.3
20260506172045 59 347 5.0 10.0 0.00 0.15 0.15 75 1015.3
20260506171109 59 29 5.0 9.0 0.00 0.15 0.15 76 1015.4
20260506170029 60 338 5.0 9.0 0.00 0.15 0.15 72 1015.3
20260506165053 61 331 6.0 11.0 0.00 0.15 0.15 70 1015.5
20260506164117 60 1 5.0 10.0 0.00 0.15 0.15 71 1015.4
20260506163037 60 2 4.0 8.0 0.00 0.15 0.15 73 1015.5
20260506162102 59 0 3.0 9.0 0.00 0.15 0.15 70 1015.4
20260506161021 59 11 3.0 7.0 0.00 0.15 0.15 73 1015.5
20260506160045 60 337 3.0 10.0 0.00 0.15 0.15 68 1015.6
20260506155109 60 1 4.0 9.0 0.00 0.15 0.15 70 1015.4
20260506154130 61 3 3.0 8.0 0.00 0.15 0.15 72 1015.6
20260506153053 61 357 5.0 10.0 0.00 0.15 0.15 71 1015.6
20260506152137 63 357 4.0 9.0 0.00 0.15 0.15 66 1015.6
20260506151037 62 3 5.0 9.0 0.00 0.15 0.15 67 1015.7
20260506150122 62 341 3.0 10.0 0.00 0.15 0.15 64 1015.9
20260506145022 62 357 3.0 8.0 0.00 0.15 0.15 65 1015.9
20260506144045 62 23 2.0 6.0 0.00 0.15 0.15 66 1016.0
20260506143109 62 5 3.0 8.0 0.00 0.15 0.15 68 1015.9
20260506142029 61 352 3.0 10.0 0.00 0.15 0.15 68 1016.1
20260506141053 62 34 4.0 8.0 0.00 0.15 0.15 66 1016.1
20260506140117 65 13 4.0 7.0 0.00 0.15 0.15 63 1016.3
20260506135038 63 359 3.0 10.0 0.00 0.15 0.15 65 1016.3
20260506134101 62 352 4.0 9.0 0.00 0.15 0.15 69 1016.2
20260506133021 63 23 4.0 9.0 0.00 0.15 0.15 67 1016.3
20260506132045 62 359 2.0 7.0 0.00 0.15 0.15 67 1016.4
20260506131130 62 15 4.0 8.0 0.00 0.15 0.15 66 1016.4
20260506130029 61 2 4.0 7.0 0.00 0.15 0.15 69 1016.4
20260506125053 62 360 3.0 8.0 0.00 0.15 0.15 69 1016.5
20260506124117 63 2 4.0 9.0 0.00 0.15 0.15 68 1016.5
20260506123037 61 6 2.0 9.0 0.00 0.15 0.15 70 1016.5
20260506122100 60 10 4.0 9.0 0.00 0.15 0.15 71 1016.7
20260506121022 61 14 3.0 9.0 0.00 0.19 0.15 69 1016.7
20260506120045 63 31 4.0 8.0 0.00 0.19 0.15 66 1016.7
20260506115229 63 358 2.0 7.0 0.00 0.19 0.15 67 1016.8
20260506114029 62 10 3.0 7.0 0.00 0.19 0.15 66 1016.9
20260506113053 61 36 2.0 6.0 0.00 0.19 0.15 69 1016.9
20260506112117 60 337 4.0 8.0 0.00 0.19 0.15 72 1017.0
20260506111036 61 19 2.0 7.0 0.00 0.19 0.15 71 1017.1
20260506105022 62 24 3.0 7.0 0.00 0.19 0.15 74 1016.9
20260506104045 61 17 3.0 6.0 0.00 0.19 0.15 73 1016.9
20260506103109 62 33 3.0 9.0 0.00 0.19 0.15 73 1017.1
20260506102029 61 54 2.0 6.0 0.00 0.19 0.15 74 1017.0
20260506101053 61 31 3.0 6.0 0.00 0.19 0.15 73 1016.9
20260506100117 61 66 2.0 6.0 0.00 0.19 0.15 71 1016.9
20260506095058 60 31 2.0 3.0 0.00 0.19 0.15 73 1016.9
20260506094141 60 40 1.0 3.0 0.00 0.19 0.15 74 1017.0
20260506093021 59 35 1.0 3.0 0.00 0.19 0.15 77 1016.8
20260506092045 56 35 1.0 2.0 0.00 0.19 0.15 84 1016.9
20260506091110 55 357 1.0 3.0 0.00 0.19 0.15 90 1016.8
20260506090049 55 38 0.0 2.0 0.00 0.19 0.15 92 1016.9
20260506085053 55 70 0.0 1.0 0.00 0.19 0.15 93 1016.8
20260506084117 55 66 0.0 1.0 0.00 0.19 0.15 94 1016.8
20260506083037 54 73 0.0 3.0 0.00 0.19 0.15 94 1016.8
20260506082101 53 102 2.0 3.0 0.00 0.19 0.15 95 1016.8
20260506081040 53 113 2.0 3.0 0.01 0.19 0.15 95 1016.7
20260506073053 52 126 3.0 6.0 0.02 0.19 0.15 95 1016.9
20260506072118 52 100 3.0 4.0 0.02 0.19 0.15 95 1016.8
20260506071037 51 106 2.0 3.0 0.01 0.18 0.14 95 1016.8
20260506070122 51 88 1.0 4.0 0.01 0.19 0.14 95 1016.6
20260506062029 51 105 2.0 3.0 0.00 0.24 0.13 95 1016.5
20260506061053 51 103 3.0 6.0 0.00 0.27 0.13 95 1016.5
20260506060117 51 84 2.0 2.0 0.01 0.28 0.13 95 1016.3
20260506051129 51 124 3.0 4.0 0.01 0.37 0.13 95 1016.2
20260506050109 51 98 2.0 3.0 0.00 0.37 0.12 95 1016.2
20260506045052 51 111 3.0 4.0 0.00 0.37 0.12 95 1016.2
20260506044117 51 131 3.0 4.0 0.00 0.37 0.12 95 1016.3
20260506043036 51 137 3.0 4.0 0.00 0.37 0.12 95 1016.2
20260506042100 51 89 1.0 3.0 0.00 0.37 0.12 95 1016.2
20260506041041 51 82 1.0 2.0 0.00 0.37 0.12 95 1016.5
20260506040045 51 80 2.0 3.0 0.00 0.37 0.12 95 1016.5
20260506035129 51 85 1.0 2.0 0.00 0.37 0.12 95 1016.5
20260506034029 51 105 2.0 4.0 0.00 0.37 0.12 95 1016.5
20260506033052 51 99 2.0 3.0 0.00 0.37 0.12 95 1016.6
20260506032117 51 86 2.0 2.0 0.00 0.37 0.12 95 1016.6
20260506031038 51 88 1.0 3.0 0.04 0.37 0.12 94 1016.7
20260506025021 51 88 1.0 2.0 0.10 0.37 0.12 94 1016.7
20260506024045 51 107 2.0 3.0 0.10 0.37 0.12 94 1016.7
20260506023129 51 111 2.0 3.0 0.10 0.37 0.12 94 1016.8
20260506022029 51 30 1.0 3.0 0.11 0.37 0.12 94 1016.8
20260506021052 52 305 2.0 4.0 0.08 0.33 0.08 94 1016.9
20260506020116 52 111 2.0 3.0 0.06 0.31 0.06 93 1016.8
20260506015037 52 83 2.0 3.0 0.02 0.27 0.02 93 1017.0
20260506014100 51 88 2.0 3.0 0.02 0.27 0.02 93 1017.1
20260506013041 51 77 1.0 4.0 0.02 0.27 0.02 93 1017.1
20260506012044 51 101 2.0 3.0 0.01 0.26 0.01 93 1017.3
20260506011109 51 88 2.0 2.0 0.00 0.25 0.00 92 1017.4
20260506010029 51 89 2.0 2.0 0.00 0.25 0.00 92 1017.4
20260506005052 51 94 2.0 3.0 0.00 0.25 0.00 92 1017.4
20260506004117 51 110 2.0 3.0 0.00 0.25 0.00 92 1017.6
20260506003037 51 127 3.0 4.0 0.00 0.25 0.00 92 1017.8
20260506002100 52 119 3.0 4.0 0.00 0.25 0.00 92 1017.8
20260506001030 52 121 2.0 3.0 0.00 0.25 0.00 91 1017.7
20260506000125 52 124 2.0 4.0 0.00 0.25 0.00 91 1017.8
20260505235109 52 119 2.0 3.0 0.00 0.25 0.00 90 1017.8
20260505234030 52 83 1.0 3.0 0.00 0.25 0.00 90 1017.9
20260505233113 53 91 2.0 3.0 0.00 0.25 0.00 89 1017.8
20260505232117 53 112 2.0 3.0 0.00 0.25 0.00 89 1017.9
20260505231037 53 111 2.0 3.0 0.00 0.25 0.00 89 1017.9
20260505230101 53 90 2.0 3.0 0.00 0.25 0.00 89 1018.0
20260505225021 53 99 2.0 3.0 0.00 0.25 0.00 89 1017.9
20260505224044 53 116 2.0 4.0 0.00 0.25 0.00 88 1018.0
20260505223128 54 91 2.0 2.0 0.00 0.25 0.00 87 1018.0